Location: Black Swamp Observatory
(41.3920°N, 84.1250°W)
Time: 18:22:58
(UTC-05:00)

deb Explorer IX - All Passes

Search period start: 22 January 2022 00:00
Search period end: 01 February 2022 00:00
Orbit: 544 x 1082 km, 38.8° (Epoch: 22 January)

Date Brightness Start Highest point End Pass type
(mag) Time Alt. Az. Time Alt. Az. Time Alt. Az.
22 Jan - 12:58:56 10° SSE 12:59:55 11° SSE 13:00:54 10° SE daylight
22 Jan - 14:41:58 10° SW 14:45:49 34° SSE 14:49:32 10° E daylight
22 Jan - 16:27:59 10° WSW 16:32:01 61° S 16:36:08 10° E daylight
22 Jan - 18:14:23 10° W 18:18:18 44° SSW 18:22:30 10° ESE visible
22 Jan - 20:01:33 10° WSW 20:04:22 17° SSW 20:07:22 10° SSE visible
23 Jan - 12:32:58 10° SSE 12:34:07 11° SSE 12:35:14 10° SE daylight
23 Jan - 14:16:07 10° SW 14:20:03 34° SSE 14:23:47 10° E daylight
23 Jan - 16:02:11 10° WSW 16:06:16 60° S 16:10:19 10° E daylight
23 Jan - 17:48:38 10° W 17:52:32 44° SSW 17:56:38 10° ESE daylight
23 Jan - 19:35:51 10° WSW 19:38:34 17° SSW 19:41:26 10° S visible
24 Jan - 12:06:58 10° SSE 12:08:18 11° SSE 12:09:36 10° SE daylight
24 Jan - 13:50:14 10° SW 13:54:16 34° SSE 13:58:02 10° E daylight
24 Jan - 15:36:22 10° WSW 15:40:29 60° S 15:44:31 10° E daylight
24 Jan - 17:22:52 10° W 17:26:45 44° SSW 17:30:46 10° ESE daylight
24 Jan - 19:10:07 10° WSW 19:12:45 16° SSW 19:15:32 10° S visible
25 Jan - 11:40:56 10° SSE 11:42:28 11° SSE 11:43:58 10° SE daylight
25 Jan - 13:24:19 10° SW 13:28:28 34° SSE 13:32:17 10° E daylight
25 Jan - 15:10:30 10° WSW 15:14:42 60° S 15:18:44 10° E daylight
25 Jan - 16:57:03 10° W 17:00:58 44° SSW 17:04:55 10° ESE daylight
25 Jan - 18:44:20 10° WSW 18:46:57 16° SSW 18:49:39 10° S visible
26 Jan - 11:14:51 10° S 11:16:36 12° SSE 11:18:18 10° SE daylight
26 Jan - 12:58:21 10° SW 13:02:39 35° SSE 13:06:32 10° E daylight
26 Jan - 14:44:35 10° WSW 14:48:55 61° S 14:52:57 10° E daylight
26 Jan - 16:31:14 10° W 16:35:11 45° SSW 16:39:06 10° ESE daylight
26 Jan - 18:18:33 10° WSW 18:21:07 16° SSW 18:23:47 10° S visible
27 Jan - 10:48:45 10° S 10:50:45 12° SSE 10:52:38 10° SE daylight
27 Jan - 12:32:22 10° SW 12:36:48 35° SSE 12:40:46 10° E daylight
27 Jan - 14:18:39 10° WSW 14:23:06 61° S 14:27:10 10° E daylight
27 Jan - 16:05:21 10° W 16:09:22 45° SSW 16:13:16 10° ESE daylight
27 Jan - 17:52:43 10° WSW 17:55:18 16° SSW 17:57:56 10° S daylight
28 Jan - 10:22:37 10° S 10:24:51 13° SSE 10:26:56 10° ESE daylight
28 Jan - 12:06:20 10° SW 12:10:56 36° SSE 12:15:01 10° E daylight
28 Jan - 13:52:41 10° WSW 13:57:15 61° S 14:01:23 10° E daylight
28 Jan - 15:39:27 10° W 15:43:33 46° SSW 15:47:28 10° ESE daylight
28 Jan - 17:26:50 10° WSW 17:29:29 17° SSW 17:32:07 10° S daylight
29 Jan - 09:56:29 10° S 09:58:55 13° SSE 10:01:13 10° ESE daylight
29 Jan - 11:40:16 10° SW 11:45:02 36° SSE 11:49:15 10° E daylight
29 Jan - 13:26:40 10° WSW 13:31:23 62° S 13:35:36 10° E daylight
29 Jan - 15:13:30 10° W 15:17:43 47° SSW 15:21:39 10° ESE daylight
29 Jan - 17:00:55 10° WSW 17:03:38 17° SSW 17:06:19 10° SSE daylight
30 Jan - 09:30:20 10° S 09:32:58 13° SSE 09:35:28 10° ESE daylight
30 Jan - 11:14:10 10° SW 11:19:07 37° SSE 11:23:28 10° E daylight
30 Jan - 13:00:37 10° WSW 13:05:31 62° S 13:09:50 10° E daylight
30 Jan - 14:47:30 10° W 14:51:52 49° SSW 14:55:51 10° ESE daylight
30 Jan - 16:34:58 10° WSW 16:37:47 18° SSW 16:40:32 10° SSE daylight
31 Jan - 09:04:09 10° S 09:07:00 14° SSE 09:09:41 10° ESE daylight
31 Jan - 10:48:02 10° SW 10:53:11 37° SSE 10:57:41 10° E daylight
31 Jan - 12:34:31 10° WSW 12:39:37 63° S 12:44:02 10° E daylight
31 Jan - 14:21:29 10° W 14:25:59 50° SSW 14:30:03 10° ESE daylight
31 Jan - 16:08:58 10° WSW 16:11:55 18° SSW 16:14:45 10° SSE daylight
